Date,TemperatureHighF,TemperatureAvgF,TemperatureLowF,DewpointHighF,DewpointAvgF,DewpointLowF,HumidityHigh,HumidityAvg,HumidityLow,PressureMaxIn,PressureMinIn,WindSpeedMaxMPH,WindSpeedAvgMPH,GustSpeedMaxMPH,PrecipitationSumIn
2013-1-1,32,25,16,32,18,11,99,75,58,0.00,40.00,11,4,20,0.00
2013-1-2,26,20,13,19,17,12,96,87,77,0.00,40.00,9,4,12,0.00
2013-1-3,30,23,14,28,18,9,94,82,69,0.00,40.00,12,6,19,0.00
2013-1-4,29,26,21,26,21,16,92,81,68,0.00,40.00,17,10,27,0.00
2013-1-5,35,28,21,33,26,21,99,90,74,0.00,40.00,12,6,21,0.00
2013-1-6,37,34,31,35,33,29,99,94,82,0.00,40.00,14,7,23,0.00
2013-1-7,36,32,29,31,28,26,93,86,73,0.00,40.00,15,6,24,0.00
2013-1-8,39,32,26,32,28,25,96,86,68,0.00,40.00,10,5,17,0.00
2013-1-9,48,41,32,38,33,26,97,75,51,0.00,40.00,16,8,28,0.00
2013-1-10,42,35,28,37,32,27,99,89,68,0.00,40.00,9,3,12,0.00
2013-1-11,60,48,36,57,47,36,100,95,80,0.00,40.00,17,6,27,0.00
2013-1-12,60,54,49,57,53,48,100,95,90,0.00,40.00,11,6,19,0.00
2013-1-13,53,42,34,53,42,33,100,99,99,0.00,40.00,16,6,24,0.00
2013-1-14,33,27,24,33,22,19,100,84,72,0.00,40.00,16,6,24,0.00
2013-1-15,32,26,20,26,21,19,98,82,59,0.00,40.00,7,2,11,0.00
2013-1-16,38,31,25,29,24,20,96,76,48,0.00,40.00,14,6,22,0.00
2013-1-17,41,33,21,34,25,11,96,73,48,0.00,40.00,14,6,22,0.00
2013-1-18,37,29,21,26,20,11,86,69,59,0.00,40.00,22,8,35,0.00
2013-1-19,50,43,37,38,31,26,75,62,52,0.00,40.00,17,12,29,0.00
2013-1-20,45,27,20,38,17,10,78,65,51,0.00,40.00,27,13,40,0.00
2013-1-21,21,17,10,14,10,4,81,71,61,0.00,40.00,17,9,29,0.00
2013-1-22,12,8,2,8,3,-1,89,80,72,0.00,40.00,12,6,22,0.00
2013-1-23,19,13,7,15,7,1,92,77,58,0.00,40.00,10,5,16,0.00
2013-1-24,26,16,9,16,9,3,97,75,45,0.00,40.00,12,5,17,0.00
2013-1-25,22,20,17,22,16,11,99,86,75,0.00,40.00,9,5,17,0.00
2013-1-26,28,24,21,24,20,14,100,84,60,0.00,40.00,11,4,16,0.00
2013-1-27,32,25,17,31,21,14,95,83,73,0.00,40.00,11,4,16,0.00
2013-1-28,50,43,32,50,43,30,100,99,92,0.00,40.00,12,7,21,0.00
2013-1-29,59,51,37,58,50,37,100,98,96,0.00,40.00,15,7,24,0.00
2013-1-30,63,53,34,61,52,31,100,96,89,0.00,40.00,24,12,36,0.00
2013-1-31,34,23,17,31,15,10,89,72,57,0.00,40.00,22,13,36,0.00
2013-2-1,20,16,13,13,9,6,87,75,61,0.00,40.00,16,10,26,0.00
2013-2-2,25,20,15,23,17,8,98,90,74,0.00,40.00,11,7,19,0.00
2013-2-3,24,17,8,19,14,7,96,86,69,0.00,40.00,12,5,21,0.00
2013-2-4,26,22,19,25,21,17,100,95,85,0.00,40.00,9,4,13,0.00
2013-2-5,29,24,20,29,23,20,100,94,75,0.00,40.00,9,4,15,0.00
2013-2-6,36,28,18,29,18,13,100,68,45,0.00,40.00,9,4,17,0.00
2013-2-7,45,32,25,33,27,19,99,81,56,0.00,40.00,13,5,20,0.00
2013-2-8,33,29,22,33,27,19,100,91,79,0.00,40.00,20,8,29,0.00
2013-2-9,34,25,15,26,20,15,97,82,59,0.00,40.00,7,3,11,0.00
2013-2-10,46,35,22,43,29,22,97,80,54,0.00,40.00,15,5,22,0.00
2013-2-11,47,40,33,47,34,26,99,80,67,0.00,40.00,24,13,42,0.00
2013-2-12,37,33,30,29,27,25,84,77,68,0.00,40.00,13,7,25,0.00
2013-2-13,39,32,27,30,27,25,95,83,64,0.00,40.00,7,4,11,0.00
2013-2-14,43,36,30,40,34,27,98,89,67,0.00,40.00,20,9,29,0.00
2013-2-15,36,31,26,29,23,16,88,72,54,0.00,40.00,12,6,19,0.00
2013-2-16,28,24,18,25,18,12,90,80,65,0.00,40.00,12,5,20,0.00
2013-2-17,27,20,14,15,12,8,97,72,46,0.00,40.00,12,5,20,0.00
2013-2-18,49,35,20,37,24,11,77,65,50,0.00,40.00,17,9,26,0.00
2013-2-19,47,29,18,44,26,12,99,86,65,0.00,40.00,22,14,34,0.00
2013-2-20,24,21,18,18,15,11,92,76,62,0.00,40.00,16,9,25,0.00
2013-2-21,26,24,22,20,19,17,87,82,76,0.00,40.00,12,6,17,0.00
2013-2-22,36,30,23,36,29,20,100,97,88,0.00,40.00,14,7,24,0.00
2013-2-23,35,32,29,35,26,21,98,80,62,0.00,40.00,13,7,19,0.00
2013-2-24,38,31,25,29,26,21,88,80,65,0.00,40.00,12,6,20,0.00
2013-2-25,41,32,24,36,27,24,100,83,54,0.00,40.00,11,4,17,0.00
2013-2-26,34,32,31,33,31,28,100,95,88,0.00,40.00,17,11,29,0.00
2013-2-27,36,34,33,36,34,33,100,99,99,0.00,40.00,9,6,17,0.00
2013-2-28,39,35,32,38,33,30,100,94,78,0.00,40.00,12,6,21,0.00
2013-3-1,32,29,27,32,26,23,98,86,78,0.00,40.00,12,7,18,0.00
2013-3-2,29,27,26,25,23,20,92,84,78,0.00,40.00,9,6,16,0.00
2013-3-3,31,26,23,21,19,14,88,74,53,0.00,40.00,11,5,17,0.00
2013-3-4,39,28,19,24,20,18,96,73,43,0.00,40.00,6,3,9,0.00
2013-3-5,32,29,26,29,27,23,97,91,76,0.00,40.00,17,10,29,0.00
2013-3-6,40,34,29,33,30,27,96,85,73,0.00,40.00,16,6,27,0.00
2013-3-7,39,36,32,35,30,23,95,82,63,0.00,40.00,9,4,14,0.00
2013-3-8,46,35,26,31,26,23,90,71,48,0.00,40.00,7,3,11,0.00
2013-3-9,48,38,30,36,32,29,96,81,52,0.00,40.00,9,4,15,0.00
2013-3-10,62,55,46,42,40,38,77,57,45,0.00,40.00,13,8,21,0.00
2013-3-11,57,51,39,53,48,36,98,88,57,0.00,40.00,19,12,31,0.00
2013-3-12,39,35,33,36,32,28,94,86,74,0.00,40.00,14,8,24,0.00
2013-3-13,34,30,27,31,24,19,96,77,61,0.00,40.00,17,9,29,0.00
2013-3-14,42,33,24,24,22,18,85,65,45,0.00,40.00,13,6,21,0.00
2013-3-15,45,38,33,41,34,22,100,85,63,0.00,40.00,10,6,19,0.00
2013-3-16,37,32,30,37,32,29,100,99,92,0.00,40.00,13,7,20,0.00
2013-3-17,32,29,26,29,23,18,92,77,56,0.00,40.00,13,7,22,0.00
2013-3-18,39,34,29,39,32,24,100,94,82,0.00,40.00,14,8,25,0.00
2013-3-19,36,30,24,36,21,16,100,70,50,0.00,40.00,20,12,34,0.00
2013-3-20,30,27,20,22,17,12,83,64,52,0.00,40.00,14,8,24,0.00
2013-3-21,33,25,17,26,20,14,94,82,63,0.00,40.00,14,8,22,0.00
2013-3-22,43,33,27,26,22,21,78,65,45,0.00,40.00,12,7,19,0.00
2013-3-23,42,33,25,31,26,24,96,77,49,0.00,40.00,9,3,14,0.00
2013-3-24,36,32,28,32,29,25,96,87,67,0.00,40.00,19,10,29,0.00
2013-3-25,38,34,31,37,32,28,100,92,78,0.00,40.00,17,10,29,0.00
2013-3-26,44,38,34,37,32,30,92,81,60,0.00,40.00,11,6,21,0.00
2013-3-27,46,39,32,34,29,24,96,69,43,0.00,40.00,16,8,24,0.00
2013-3-28,53,42,31,31,28,25,81,58,39,0.00,40.00,12,6,19,0.00
2013-3-29,53,43,32,28,26,21,80,53,31,0.00,40.00,10,4,16,0.00
2013-3-30,57,45,31,34,28,24,85,54,31,0.00,40.00,12,4,18,0.00
2013-3-31,61,50,44,50,36,-100,96,64,36,0.00,40.00,16,7,24,0.00
2013-4-1,49,37,29,38,22,13,87,56,34,0.00,40.00,16,9,25,0.00
2013-4-2,43,34,25,24,17,14,83,53,33,0.00,40.00,14,6,23,0.00
2013-4-3,46,35,26,25,18,13,76,51,31,0.00,40.00,16,5,24,0.00
2013-4-4,58,42,28,23,18,16,71,42,20,0.00,40.00,11,5,16,0.00
2013-4-5,53,45,37,39,27,19,93,53,27,0.00,40.00,12,6,21,0.00
2013-4-6,57,45,35,31,25,18,81,47,29,0.00,40.00,16,8,22,0.00
2013-4-7,63,58,49,51,42,25,77,56,30,0.00,40.00,18,11,34,0.00
2013-4-8,72,55,42,61,48,38,94,80,56,0.00,40.00,17,7,32,0.00
2013-4-9,56,49,46,49,47,45,99,91,78,0.00,40.00,11,5,16,0.00
2013-4-10,50,46,43,50,46,43,100,99,99,0.00,40.00,15,7,23,0.00
2013-4-11,43,40,38,43,40,38,100,99,99,0.00,40.00,19,13,35,0.00
2013-4-12,43,41,39,41,38,34,100,92,74,0.00,40.00,16,8,25,0.00
2013-4-13,43,41,39,40,35,30,94,81,63,0.00,40.00,17,8,29,0.00
2013-4-14,49,42,37,41,38,33,96,83,70,0.00,40.00,13,5,19,0.00
2013-4-15,70,57,40,56,49,40,99,77,55,0.00,40.00,21,8,29,0.00
2013-4-16,63,56,51,58,52,43,100,86,56,0.00,40.00,10,4,16,0.00
2013-4-17,53,49,45,48,39,35,89,70,54,0.00,40.00,17,10,26,0.00
2013-4-18,81,62,46,68,58,44,98,88,56,0.00,40.00,28,10,42,0.00
2013-4-19,65,47,38,62,43,31,99,85,64,0.00,40.00,21,11,41,0.00
2013-4-20,44,38,32,34,27,21,96,66,43,0.00,40.00,17,9,29,0.00
2013-4-21,46,38,29,34,29,21,86,70,56,0.00,40.00,12,5,19,0.00
2013-4-22,59,48,37,42,36,28,96,67,32,0.00,40.00,12,5,16,0.00
2013-4-23,73,58,46,59,45,35,99,66,35,0.00,40.00,17,7,27,0.00
2013-4-24,59,44,37,58,42,30,100,93,68,0.00,40.00,14,7,21,0.00
2013-4-25,53,44,36,44,35,30,92,72,44,0.00,40.00,19,7,27,0.00
2013-4-26,61,48,33,40,34,33,97,63,36,0.00,40.00,11,4,18,0.00
2013-4-27,68,55,40,46,40,35,98,61,29,0.00,40.00,10,4,15,0.00
2013-4-28,59,55,52,59,52,-100,100,93,65,0.00,40.00,8,3,13,0.00
2013-4-29,72,62,55,60,57,55,100,85,55,0.00,40.00,9,4,14,0.00
2013-4-30,76,65,55,60,57,54,98,77,51,0.00,40.00,14,7,22,0.00
2013-5-1,84,69,60,62,59,57,92,72,41,0.00,40.00,10,5,14,0.00
2013-5-2,82,66,55,57,54,46,98,68,37,0.00,40.00,13,6,21,0.00
2013-5-3,81,68,59,60,54,45,92,63,35,0.00,40.00,14,6,21,0.00
2013-5-4,68,63,58,53,49,40,77,60,36,0.00,40.00,14,7,24,0.00
2013-5-5,69,61,55,52,50,47,82,67,48,0.00,40.00,16,7,23,0.00
2013-5-6,69,61,53,55,51,45,95,70,52,0.00,40.00,11,5,17,0.00
2013-5-7,73,63,53,61,55,49,94,75,58,0.00,40.00,13,5,19,0.00
2013-5-8,80,68,58,57,54,49,93,63,39,0.00,40.00,9,3,14,0.00
2013-5-9,84,71,58,60,55,48,96,60,32,0.00,40.00,8,3,16,0.00
2013-5-10,73,64,47,66,58,-100,99,86,57,0.00,40.00,13,7,22,0.00
2013-5-11,60,50,43,51,46,37,97,88,67,0.00,40.00,16,6,28,0.00
2013-5-12,51,44,39,38,32,-100,93,66,42,0.00,40.00,20,8,29,0.00
2013-5-13,59,46,34,34,27,23,89,52,26,0.00,40.00,11,4,19,0.00
2013-5-14,81,62,46,62,45,29,71,54,39,0.00,40.00,19,7,28,0.00
2013-5-15,88,78,70,66,58,48,84,54,26,0.00,40.00,15,8,28,0.00
2013-5-16,86,68,57,58,30,-100,82,49,27,0.00,40.00,13,4,21,0.00
2013-5-17,69,61,56,55,47,-100,90,68,49,0.00,40.00,15,9,23,0.00
2013-5-18,75,64,58,59,55,51,94,74,49,0.00,40.00,11,7,17,0.00
2013-5-19,85,72,59,70,64,56,97,77,53,0.00,40.00,11,4,14,0.00
2013-5-20,92,80,69,75,69,65,96,71,43,0.00,40.00,16,7,25,0.00
2013-5-21,88,81,74,72,66,61,92,64,40,0.00,40.00,16,8,25,0.00
2013-5-22,83,74,66,72,67,61,98,80,49,0.00,40.00,18,7,29,0.00
2013-5-23,70,59,45,65,58,44,99,95,77,0.00,40.00,17,7,27,0.00
2013-5-24,59,50,43,45,40,36,99,70,43,0.00,40.00,12,6,19,0.00
2013-5-25,68,56,41,49,41,35,98,64,31,0.00,40.00,9,2,15,0.00
2013-5-26,70,59,44,45,38,31,92,50,24,0.00,40.00,10,3,12,0.00
2013-5-27,61,56,54,56,47,37,100,75,40,0.00,40.00,11,4,19,0.00
2013-5-28,81,68,56,74,66,56,100,91,75,0.00,40.00,21,5,31,0.00
2013-5-29,86,78,72,71,68,65,83,70,53,0.00,40.00,13,7,26,0.00
2013-5-30,90,78,70,75,70,66,98,77,48,0.00,40.00,22,6,36,0.00
2013-5-31,83,76,72,73,71,68,97,85,63,0.00,40.00,16,8,29,0.00
2013-6-1,80,72,65,72,68,65,100,88,66,0.00,40.00,15,7,24,0.00
2013-6-2,72,67,58,69,62,-100,99,87,67,0.00,40.00,15,7,21,0.00
2013-6-3,70,60,49,54,46,39,89,62,36,0.00,40.00,11,4,15,0.00
2013-6-4,71,62,52,57,51,48,93,69,47,0.00,40.00,9,4,15,0.00
2013-6-5,73,64,55,58,53,47,88,67,41,0.00,40.00,12,6,20,0.00
2013-6-6,71,64,58,60,56,50,90,77,68,0.00,40.00,11,7,19,0.00
2013-6-7,64,59,55,59,57,54,96,91,82,0.00,40.00,7,4,11,0.00
2013-6-8,77,66,58,61,58,56,96,78,53,0.00,40.00,9,3,16,0.00
2013-6-9,77,68,62,69,64,59,98,86,69,0.00,40.00,13,5,21,0.00
2013-6-10,74,68,66,72,68,66,100,98,92,0.00,40.00,11,2,19,0.00
2013-6-11,84,74,66,71,68,66,99,84,59,0.00,40.00,10,5,17,0.00
2013-6-12,84,74,67,74,70,67,98,88,64,0.00,40.00,11,3,15,0.00
2013-6-13,79,70,62,69,63,56,100,79,48,0.00,40.00,12,6,24,0.00
2013-6-14,79,70,61,65,62,59,97,76,53,0.00,40.00,11,4,18,0.00
2013-6-15,82,70,61,70,64,59,95,80,48,0.00,40.00,9,4,17,0.00
2013-6-16,83,75,67,72,69,65,99,83,58,0.00,40.00,12,7,19,0.00
2013-6-17,87,77,64,75,66,61,97,74,43,0.00,40.00,9,4,15,0.00
2013-6-18,75,69,62,69,63,51,98,83,64,0.00,40.00,14,7,21,0.00
2013-6-19,75,66,54,63,53,46,85,64,43,0.00,40.00,9,5,16,0.00
2013-6-20,84,69,58,61,57,53,91,67,37,0.00,40.00,9,4,14,0.00
2013-6-22,92,82,72,79,75,71,98,81,62,0.00,40.00,14,7,25,0.00
2013-6-23,91,80,73,76,73,69,98,80,51,0.00,40.00,13,5,27,0.00
2013-6-24,89,79,71,76,73,70,96,82,62,0.00,40.00,12,5,17,0.00
2013-6-25,91,80,70,80,75,69,98,86,62,0.00,40.00,11,6,21,0.00
2013-6-26,85,74,68,78,72,68,99,93,67,0.00,40.00,10,4,19,0.00
2013-6-27,83,75,69,77,73,69,99,94,78,0.00,40.00,14,3,24,0.00
2013-6-28,82,69,65,72,67,64,99,93,59,0.00,40.00,13,4,21,0.00
2013-6-29,77,69,62,70,67,62,100,92,76,0.00,40.00,11,4,16,0.00
2013-6-30,77,70,65,67,65,62,98,84,67,0.00,40.00,15,7,21,0.00
2013-7-1,70,64,62,65,62,57,100,91,79,0.00,40.00,15,7,25,0.00
2013-7-2,71,66,62,70,66,62,99,98,94,0.00,40.00,11,6,19,0.00
2013-7-3,84,74,67,73,69,67,99,86,59,0.00,40.00,9,4,15,0.00
2013-7-4,83,76,71,74,72,70,98,89,65,0.00,40.00,12,4,18,0.00
2013-7-5,84,75,70,76,72,70,99,91,67,0.00,40.00,6,3,9,0.00
2013-7-6,81,74,71,77,73,71,100,96,84,0.00,40.00,7,3,12,0.00
2013-7-7,80,72,68,74,71,68,100,95,77,0.00,40.00,8,4,18,0.00
2013-7-8,84,73,68,80,70,-100,98,95,82,0.00,40.00,9,4,14,0.00
2013-7-9,89,77,72,82,75,72,100,95,75,0.00,40.00,11,5,17,0.00
2013-7-10,87,76,69,82,71,-100,98,89,66,0.00,40.00,10,6,26,0.00
2013-7-11,81,72,66,68,62,58,94,73,47,0.00,40.00,9,4,16,0.00
2013-7-12,81,72,60,70,65,60,98,79,53,0.00,40.00,11,5,17,0.00
2013-7-13,82,77,67,74,71,66,98,82,65,0.00,40.00,12,6,18,0.00
2013-7-14,89,80,71,79,75,71,98,85,65,0.00,40.00,11,4,17,0.00
2013-7-15,93,82,77,82,78,76,96,86,61,0.00,40.00,7,2,14,0.00
2013-7-16,92,85,80,82,80,78,97,84,65,0.00,40.00,8,2,12,0.00
2013-7-17,95,85,78,83,80,76,95,83,62,0.00,40.00,11,3,17,0.00
2013-7-18,95,87,77,82,79,76,98,79,59,0.00,40.00,9,4,14,0.00
2013-7-19,94,87,78,82,79,76,96,78,58,0.00,40.00,16,8,27,0.00
2013-7-20,87,79,71,80,72,-100,100,82,53,0.00,40.00,12,5,25,0.00
2013-7-21,85,77,69,72,68,65,97,77,54,0.00,40.00,10,5,12,0.00
2013-7-22,81,75,72,76,71,68,96,88,77,0.00,40.00,6,3,10,0.00
2013-7-23,87,74,68,76,70,62,99,88,56,0.00,40.00,12,5,22,0.00
2013-7-24,74,66,56,60,56,54,97,72,53,0.00,40.00,12,5,20,0.00
2013-7-25,79,67,57,61,58,56,95,74,52,0.00,40.00,7,3,10,0.00
2013-7-26,81,71,60,66,61,58,98,73,47,0.00,40.00,8,3,14,0.00
2013-7-27,75,68,61,71,66,59,99,94,79,0.00,40.00,12,6,24,0.00
2013-7-28,68,61,54,62,56,52,99,83,63,0.00,40.00,12,6,24,0.00
2013-7-29,74,62,56,62,58,55,96,87,62,0.00,40.00,9,4,17,0.00
2013-7-30,82,67,56,68,61,56,99,84,47,0.00,40.00,7,2,10,0.00
2013-7-31,80,72,69,72,69,67,99,90,69,0.00,40.00,12,5,16,0.00
2013-8-1,81,72,65,71,65,58,100,81,50,0.00,40.00,9,4,17,0.00
2013-8-2,74,67,59,72,64,58,97,89,71,0.00,40.00,12,5,20,0.00
2013-8-3,81,73,65,69,61,54,99,69,41,0.00,40.00,10,4,16,0.00
2013-8-4,76,68,58,62,58,54,96,73,48,0.00,40.00,12,5,17,0.00
2013-8-5,75,68,60,64,60,56,92,77,51,0.00,40.00,7,3,12,0.00
2013-8-6,82,73,67,71,67,64,95,82,61,0.00,40.00,13,6,18,0.00
2013-8-7,83,75,69,78,73,69,98,93,74,0.00,40.00,9,4,19,0.00
2013-8-8,77,74,69,76,72,69,98,93,84,0.00,40.00,9,4,14,0.00
2013-8-9,82,74,66,70,63,56,93,72,43,0.00,40.00,9,4,14,0.00
2013-8-10,78,73,67,70,68,65,95,83,69,0.00,40.00,9,4,14,0.00
2013-8-11,84,73,61,67,62,56,100,72,40,0.00,40.00,9,2,14,0.00
2013-8-12,82,72,68,75,68,64,98,88,74,0.00,40.00,7,2,12,0.00
2013-8-13,71,64,59,69,56,-100,99,80,50,0.00,40.00,10,6,19,0.00
2013-8-14,74,62,51,57,52,49,95,71,44,0.00,40.00,8,4,13,0.00
2013-8-15,78,57,53,60,36,-100,98,68,40,0.00,40.00,6,2,11,0.00
2013-8-16,81,66,58,62,50,-100,94,66,36,0.00,40.00,8,2,12,0.00
2013-8-17,80,67,56,67,60,56,98,80,46,0.00,40.00,11,3,17,0.00
2013-8-18,83,70,61,71,60,-100,99,75,37,0.00,40.00,9,3,13,0.00
2013-8-19,86,68,61,68,48,-100,98,72,43,0.00,40.00,8,2,11,0.00
2013-8-20,88,74,65,71,64,-100,98,77,47,0.00,40.00,7,3,12,0.00
2013-8-21,88,79,69,75,71,67,94,79,54,0.00,40.00,11,5,15,0.00
2013-8-22,85,75,71,75,72,70,98,90,67,0.00,40.00,10,5,15,0.00
2013-8-23,85,74,65,70,63,54,99,71,37,0.00,40.00,9,4,14,0.00
2013-8-24,84,73,61,70,61,53,98,71,39,0.00,40.00,11,4,15,0.00
2013-8-25,88,74,61,69,61,-100,97,70,44,0.00,40.00,7,4,14,0.00
2013-8-26,90,79,68,76,71,66,94,76,59,0.00,40.00,12,6,19,0.00
2013-8-27,85,77,73,80,75,73,99,95,85,0.00,40.00,11,4,16,0.00
2013-8-28,85,81,75,81,78,74,97,91,84,0.00,40.00,7,4,13,0.00
2013-8-29,88,78,69,77,72,68,99,84,52,0.00,40.00,7,3,11,0.00
2013-8-30,89,79,68,77,72,68,98,81,54,0.00,40.00,10,4,17,0.00
2013-8-31,85,76,68,76,72,68,99,90,67,0.00,40.00,21,4,32,0.00
2013-9-1,82,75,73,76,70,-100,98,89,73,0.00,40.00,9,4,13,0.00
2013-9-2,81,73,63,73,66,56,99,81,47,0.00,40.00,12,4,21,0.00
2013-9-3,76,66,60,61,57,54,90,73,49,0.00,40.00,11,5,17,0.00
2013-9-4,84,69,57,63,58,54,98,72,36,0.00,40.00,12,4,17,0.00
2013-9-5,74,68,61,64,54,43,98,67,35,0.00,40.00,9,5,12,0.00
2013-9-6,78,66,53,59,53,46,98,67,33,0.00,40.00,7,3,11,0.00
2013-9-7,85,71,60,71,62,51,91,73,55,0.00,40.00,9,4,13,0.00
2013-9-8,76,70,65,70,64,-100,97,85,61,0.00,40.00,11,5,17,0.00
2013-9-9,85,70,62,76,66,53,99,89,68,0.00,40.00,6,2,9,0.00
2013-9-12,81,72,61,73,66,55,99,83,44,0.00,40.00,12,4,21,0.00
2013-9-13,64,57,50,54,49,44,91,76,53,0.00,40.00,11,6,17,0.00
2013-9-14,70,56,44,55,45,41,98,70,35,0.00,40.00,5,2,9,0.00
2013-9-15,70,57,52,59,50,-100,99,83,47,0.00,40.00,6,3,11,0.00
2013-9-16,65,59,54,58,54,47,100,84,52,0.00,40.00,9,4,15,0.00
2013-9-17,67,57,46,56,49,45,98,78,45,0.00,40.00,9,4,15,0.00
2013-9-18,65,57,55,58,55,54,98,95,91,0.00,40.00,4,1,6,0.00
2013-9-19,83,70,63,71,67,63,99,90,63,0.00,40.00,11,5,16,0.00
2013-9-20,86,75,70,75,71,69,99,90,62,0.00,40.00,12,7,21,0.00
2013-9-21,71,65,58,69,59,47,100,82,43,0.00,40.00,11,5,19,0.00
2013-9-22,63,55,53,52,44,-100,92,68,50,0.00,40.00,11,5,16,0.00
2013-9-23,64,56,49,52,48,44,96,76,50,0.00,40.00,9,4,12,0.00
2013-9-24,66,56,46,53,49,46,99,80,49,0.00,40.00,10,3,17,0.00
2013-9-25,71,59,50,61,56,50,99,88,57,0.00,40.00,10,3,16,0.00
2013-9-26,75,62,51,62,54,47,100,80,38,0.00,40.00,8,3,13,0.00
2013-9-27,75,63,53,65,58,53,100,85,52,0.00,40.00,11,4,16,0.00
2013-9-28,79,66,53,63,58,53,99,79,41,0.00,40.00,9,3,12,0.00
2013-9-29,66,62,61,65,58,-100,100,90,71,0.00,40.00,7,4,12,0.00
2013-9-30,72,63,57,62,59,56,100,87,58,0.00,40.00,6,3,12,0.00
2013-10-2,84,71,64,67,61,54,98,74,37,0.00,40.00,6,3,10,0.00
2013-10-3,80,70,64,73,67,60,97,88,75,0.00,40.00,7,3,12,0.00
2013-10-4,76,71,68,74,70,68,98,95,87,0.00,40.00,9,4,13,0.00
2013-10-5,74,69,67,73,69,66,100,99,96,0.00,40.00,8,3,15,0.00
2013-10-6,74,67,56,71,66,56,100,98,86,0.00,40.00,11,7,19,0.00
2013-10-7,61,53,46,56,48,44,98,83,59,0.00,40.00,11,6,24,0.00
2013-10-8,70,56,45,55,48,40,100,78,34,0.00,40.00,9,2,12,0.00
2013-10-9,70,60,48,55,50,44,98,74,40,0.00,40.00,11,4,17,0.00
2013-10-10,71,57,46,57,49,41,100,79,34,0.00,40.00,6,2,12,0.00
2013-10-11,72,59,47,64,55,46,100,90,39,0.00,40.00,6,2,12,0.00
2013-10-12,77,65,53,64,58,46,100,81,35,0.00,40.00,8,2,12,0.00
2013-10-13,72,63,54,63,47,-100,98,63,29,0.00,40.00,8,4,14,0.00
2013-10-14,66,56,47,55,49,45,97,77,48,0.00,40.00,11,4,15,0.00
2013-10-15,64,55,49,63,53,47,97,93,86,0.00,40.00,7,3,7,0.00
2013-10-20,62,50,42,47,39,-100,91,70,41,0.00,40.00,11,7,21,0.00
2013-10-21,61,53,43,53,48,40,99,82,67,0.00,40.00,13,-10,25,0.00
2013-10-22,51,42,34,39,34,29,92,73,49,0.00,40.00,10,6,17,0.00
2013-10-23,50,40,34,41,36,29,99,84,45,0.00,40.00,10,4,16,0.00
2013-10-24,47,39,34,38,34,30,99,84,55,0.00,40.00,9,5,18,0.00
2013-10-25,49,40,32,42,32,27,99,77,46,0.00,40.00,11,6,18,0.00
2013-10-26,51,44,40,40,33,28,86,64,57,0.00,40.00,17,9,30,0.00
2013-10-27,54,43,35,42,33,-100,96,72,43,0.00,40.00,9,3,17,0.00
2013-10-28,55,44,35,45,36,-100,96,81,63,0.00,40.00,9,4,14,0.00
2013-11-13,38,31,23,27,22,20,95,71,48,0.00,40.00,13,7,25,0.00
2013-11-14,52,40,31,27,25,22,79,55,32,0.00,40.00,16,10,29,0.00
2013-11-15,51,44,39,35,30,26,76,57,47,0.00,40.00,12,6,17,0.00
2013-11-16,59,48,38,56,44,-100,98,90,79,0.00,40.00,16,8,24,0.00
2013-11-17,67,60,50,63,57,45,99,91,70,0.00,40.00,24,14,46,0.00
2013-11-18,50,43,36,44,36,28,90,77,65,0.00,40.00,20,12,31,0.00
2013-11-19,44,38,34,29,27,25,79,66,47,0.00,40.00,7,4,15,0.00
2013-12-2,41,35,31,36,31,24,99,85,51,0.00,40.00,9,3,12,0.00
2013-12-3,42,38,35,41,37,32,99,94,86,0.00,40.00,7,4,12,0.00
2013-12-4,60,50,39,56,48,39,99,95,89,0.00,40.00,14,5,22,0.00
2013-12-5,61,45,33,59,40,25,96,81,69,0.00,40.00,14,9,24,0.00
2013-12-6,33,30,25,25,22,18,77,73,67,0.00,40.00,8,5,13,0.00
2013-12-7,29,23,19,18,12,-100,76,66,50,0.00,40.00,10,4,14,0.00
2013-12-8,30,24,18,29,21,12,99,87,75,0.00,40.00,11,7,20,0.00
2013-12-9,31,27,21,31,24,14,99,87,74,0.00,40.00,17,9,25,0.00
2013-12-10,26,20,13,13,10,4,81,65,46,0.00,40.00,15,9,29,0.00
2013-12-11,26,20,14,22,15,9,95,81,71,0.00,40.00,9,6,17,0.00
2013-12-12,18,14,9,11,7,2,91,74,58,0.00,40.00,12,6,20,0.00
2013-12-13,33,24,18,27,17,10,92,73,64,0.00,40.00,14,5,18,0.00
2013-12-14,28,24,21,27,22,-100,99,97,93,0.00,40.00,14,9,19,0.00
2013-12-17,26,22,18,25,22,18,99,97,93,0.00,40.00,14,6,20,0.00
2013-12-18,30,24,20,24,21,17,99,86,71,0.00,40.00,12,7,19,0.00
2013-12-19,44,37,30,39,31,21,92,78,67,0.00,40.00,9,4,16,0.00
2013-12-20,55,46,41,55,46,39,99,98,91,0.00,40.00,9,6,16,0.00
2013-12-21,55,40,34,55,38,-100,99,97,99,0.00,40.00,13,7,25,0.00
2013-12-22,41,37,34,41,37,34,99,97,92,0.00,40.00,16,8,31,0.00
2013-12-23,36,31,25,35,27,19,95,85,71,0.00,40.00,13,8,21,0.00
2013-12-24,23,17,12,16,12,9,88,78,60,0.00,40.00,12,7,19,0.00
2013-12-25,27,22,15,26,20,14,96,89,77,0.00,40.00,14,8,19,0.00
2013-12-26,30,28,27,29,24,20,99,85,72,0.00,40.00,13,7,21,0.00
2013-12-27,42,36,29,35,31,25,90,82,71,0.00,40.00,11,6,21,0.00
2013-12-28,49,41,38,39,33,-100,88,78,65,0.00,40.00,12,8,21,0.00
2013-12-29,46,39,28,36,33,25,93,78,69,0.00,40.00,10,7,17,0.00
2013-12-30,28,23,19,25,15,10,89,72,57,0.00,40.00,14,5,22,0.00